Find M-SAT 1

NORAD ID: 23846 Int'l Des: 1996-022 Owner: TMI Country: CA operational
HEOCIRCULAR

当前视图

正在加载3D地球...

关于 M-SAT 1

正在加载描述...

即将过境

Passes for default location (London). Set your location on the main map for personalized predictions.

高度历史

Loading altitude history...

两行轨道根数

1 23846U 96022A 26151.38246939 -.00000055 00000-0 00000+0 0 9991
2 23846 12.4184 28.4981 0016962 201.5452 75.3884 0.98644885109917
Epoch: May 31, 2026 • Age: 12 hours

当前状态

高度 36263.2 km
速度 3.06 km/s
星下点 12.27°N, 84.11°W
发射日期 Apr 20, 1996
运行时间 30.1 years
类型 other

技术详情

分类 Payload
质量 2855.00 kg
干质量 1330.00 kg
总质量 2855.00 kg
长度 3.50 m
直径 2.50 m
跨度 21.00 m
形状 Box + 2 Pan
制造商 HSES/SPARM
平台类型 HS-601
阶段状态 Unknown Active Status
所有者/国家 TMI/CA

Most Searched